Header for Extended Forecast Station List Page

Search by: ID | Name | Date | Parm | Value | Avg | % Avg
Sort by: ID | Name | Date | Parm | Value | Avg | % Avg

Enter search or view all records.

Click on id for station plot
#IDNameDateParmValueAvg% Avg
0ABOM8CLARK FORK-ABOVE MISSOULA12-09-2019DISCHARGE (KAF)398354112
1AFRI1SNAKE-AMERICAN FALLS RESERVOIR12-09-2019INFLOW (KAF)1307154185
2ALFW1PEND OREILLE-ALBENI FALLS DAM12-09-2019INFLOW (KAF)3366465972
3ALPW4SNAKE-NEAR ALPINE12-09-2019DISCHARGE (KAF)32037585
4ANAW1SNAKE-NEAR ANATONE12-09-2019DISCHARGE (KAF)4733684669
5ANTI1HENRYS FORK-AT ST. ANTHONY12-09-2019DISCHARGE (KAF)34634999
6ARAI1SF BOISE-ANDERSON RANCH DAM12-09-2019INFLOW (KAF)7610076
7ARDW1ENTIAT-NEAR ARDENVOIR12-09-2019DISCHARGE (KAF)202486
8BELM8CLARK FORK-BELOW MISSOULA12-09-2019DISCHARGE (KAF)635594107
9BERO3MALHEUR-AGENCY VALLEY DAM12-09-2019INFLOW (KAF)163250
10BFEI1KOOTENAI-AT BONNERS FERRY12-09-2019STAGE (FT)MMM
11BFTI1SNAKE-NEAR BLACKFOOT12-09-2019DISCHARGE (KAF)65981181
12BIGI1BOISE-AT GLENWOOD BRIDGE12-09-2019DISCHARGE (KAF)14853278
13BITM8BITTERROOT-NEAR MISSOULA12-09-2019DISCHARGE (KAF)237233102
14BONM8BLACKFOOT-NEAR BONNER12-09-2019DISCHARGE (KAF)172142121
15BONO3COLUMBIA-BONNEVILLE DAM12-09-2019INFLOW (KAF)299524173372
16BRNI1SNAKE-BROWNLEE DAM12-09-2019INFLOW (KAF)3098442770
17BUDW1BUMPING-BUMPING LAKE DAM12-09-2019INFLOW (KAF)193752
18BULO3BULLY CREEK-BULLY CREEK DAM12-09-2019INFLOW (KAF)248281
19CABI1CLARK FORK-CABINET GORGE DAM12-09-2019INFLOW (KAF)3049393078
20CFMM8FLATHEAD-AT COLUMBIA FALLS12-09-2019DISCHARGE (KAF)882115277
21CHDW1CHELAN-LAKE CHELAN DAM12-09-2019INFLOW (KAF)13717778
22CHEI1FALL RIVER-NEAR CHESTER12-09-2019DISCHARGE (KAF)10311094
23CHJW1COLUMBIA-CHIEF JOSEPH DAM12-09-2019INFLOW (KAF)192032316683
24CIBW1COLUMBIA-AT INTL BOUNDARY12-09-2019DISCHARGE (KAF)17720MM
25CLFW1NACHES-NEAR CLIFFDEL12-09-2019DISCHARGE (KAF)6413547
26CLUW1CLE ELUM-CLE ELUM LAKE12-09-2019INFLOW (KAF)8711079
27COEI1COEUR D ALENE-COEUR D ALENE LAKE12-09-2019INFLOW (KAF)866123170
28CSDI1NF PAYETTE-CASCADE DAM12-09-2019INFLOW (KAF)8911478
29DEDI1DEADWOOD-NEAR LOWMAN12-09-2019INFLOW (KAF)142069
30DLGM8CLARK FORK-AT DEER LODGE12-09-2019DISCHARGE (KAF)596395
31DRMM8CLARK FORK-NR DRUMMOND12-09-2019DISCHARGE (KAF)157MM
32DWRI1NF CLEARWATER-DWORSHAK DAM12-09-2019INFLOW (KAF)73981790
33EASW1YAKIMA-AT EASTON12-09-2019DISCHARGE (KAF)578567
34EMMI1PAYETTE-NEAR EMMETT12-09-2019DISCHARGE (KAF)29546264
35FCFM8NF FLATHEAD-NEAR COLUMBIA FALLS12-09-2019DISCHARGE (KAF)14617285
36GCDW1COLUMBIA-GRAND COULEE DAM12-09-2019INFLOW (KAF)1905617139111
37GIBO3UMATILLA-NEAR GIBBON12-09-2019DISCHARGE (KAF)6055108
38HALI1BIG WOOD-AT HAILEY12-09-2019DISCHARGE (KAF)4139107
39HEII1SNAKE-NEAR HEISE12-09-2019DISCHARGE (KAF)51157289
40HHWM8SF FLATHEAD-HUNGRY HORSE DAM12-09-2019INFLOW (KAF)22225089
41HODO3HOOD-NEAR TUCKER BRIDGE12-09-2019DISCHARGE (KAF)25427991
42HOPI1PEND OREILLE-PEND OREILLE LAKE NR HOPE12-09-2019LAKE ELEVATION (FT)MMM
43HOTI1BRUNEAU-NEAR HOT SPRINGS12-09-2019DISCHARGE (KAF)364385
44HWRI1BIG LOST-AT HOWELL RANCH NEAR CHILLY12-09-2019DISCHARGE (KAF)2119111
45IHDW1SNAKE-ICE HARBOR DAM12-09-2019INFLOW (KAF)6299949566
46IPDI1HENRYS FORK-ISLAND PARK DAM12-09-2019INFLOW (KAF)8211274
47JDAO3COLUMBIA-JOHN DAY DAM12-09-2019INFLOW (KAF)285733486082
48JKSW4SNAKE-NEAR JACKSON12-09-2019DISCHARGE (KAF)26030585
49JLKW4SNAKE-JACKSON LAKE AT DAM12-09-2019INFLOW (KAF)9711882
50KADW1KACHESS-KACHESS DAM12-09-2019INFLOW (KAF)475093
51KEDW1YAKIMA-KEECHELUS LAKE12-09-2019INFLOW (KAF)5151101
52KERM8FLATHEAD-KERR DAM12-09-2019INFLOW (KAF)1020152067
53KIOW1YAKIMA-AT KIONA12-09-2019DISCHARGE (KAF)46886954
54LAUW1KETTLE-AT LAURIER12-09-2019DISCHARGE (KAF)154150103
55LEOI1KOOTENAI-AT LEONIA12-09-2019DISCHARGE (KAF)14851307114
56LGDW1SNAKE-LOWER GRANITE DAM12-09-2019INFLOW (KAF)6043926665
57LGSW1SNAKE-LITTLE GOOSE DAM12-09-2019INFLOW (KAF)6043933165
58LLKW1SPOKANE-AT LONGLAKE12-09-2019INFLOW (KAF)1059173361
59LMNW1SNAKE-LOWER MONUMENTAL DAM12-09-2019INFLOW (KAF)6299957766
60LUCI1BOISE-LUCKY PEAK DAM12-09-2019INFLOW (KAF)220MM
61LWRI1LITTLE WOOD-LITTLE WOOD DAM12-09-2019INFLOW (KAF)171891
62LYDM8KOOTENAI-LIBBY DAM12-09-2019INFLOW (KAF)75678796
63MACI1BIG LOST-MACKAY RESERVOIR NEAR MACKAY12-09-2019INFLOW (KAF)375786
64MAGI1BIG WOOD-MAGIC DAM12-09-2019INFLOW (KAF)4847101
65MCDW1COLUMBIA-MCNARY DAM12-09-2019INFLOW (KAF)270623314082
66MILI1SNAKE-AT MILNER12-09-2019DISCHARGE (KAF)347455
67MODO3DESCHUTES-AT MOODY NR BIGGS12-09-2019DISCHARGE (KAF)1443157792
68MONO3NF JOHN DAY-AT MONUMENT12-09-2019DISCHARGE (KAF)11527142
69MYKO3MCKAY CREEK-NEAR PILOT ROCK12-09-2019DISCHARGE (KAF)4234122
70NACW1NACHES-NEAR NACHES12-09-2019DISCHARGE (KAF)6312550
71NOXM8CLARK FORK-NOXON RAPIDS DAM12-09-2019INFLOW (KAF)2755376673
72ORFI1CLEARWATER-AT OROFINO12-09-2019DISCHARGE (KAF)732104270
73OWYO3OWYHEE-OWYHEE DAM12-09-2019INFLOW (KAF)16518689
74PARI1BOISE-NEAR PARMA12-09-2019DISCHARGE (KAF)293233126
75PARW1YAKIMA-NEAR PARKER12-09-2019DISCHARGE (KAF)33958858
76PATW1METHOW-NEAR PATEROS12-09-2019DISCHARGE (KAF)9510491
77PDTO3UMATILLA-AT PENDLETON12-09-2019DISCHARGE (KAF)12014682
78PESW1WENATCHEE-AT PESHASTIN12-09-2019DISCHARGE (KAF)26133179
79PIHI1PORTNEUF-AT POCATELLO12-09-2019DISCHARGE (KAF)597776
80PITW1KLICKITAT-NEAR PITT12-09-2019DISCHARGE (KAF)28040270
81PLDI1SF SNAKE-PALISADES DAM12-09-2019INFLOW (KAF)52660587
82PRTI1PRIEST-NEAR PRIEST RIVER12-09-2019DISCHARGE (KAF)12722756
83PRWW1COLUMBIA-PRIEST RAPIDS DAM12-09-2019INFLOW (KAF)201632140094
84RCCM8ROCK CREEK-NEAR CLINTON12-09-2019DISCHARGE (KAF)5346115
85REXI1HENRYS FORK-AT REXBURG12-09-2019DISCHARGE (KAF)41743596
86RIDI1WILLOW CREEK-RIRIE DAM12-09-2019INFLOW (KAF)1511134
87RILW1TIETON-RIMROCK LAKE NEAR RIMROCK12-09-2019INFLOW (KAF)407553
88RRHW1COLUMBIA-ROCKY REACH DAM12-09-2019INFLOW (KAF)199022412982
89SATI1ST MARIES-NEAR SANTA12-09-2019DISCHARGE (KAF)397354
90SERO3JOHN DAY-AT SERVICE CK12-09-2019DISCHARGE (KAF)21143948
91SHYI1SNAKE-NEAR SHELLEY12-09-2019DISCHARGE (KAF)73683788
92SIFI1SNAKE-AB EAGLE ROCK NR IDAHO FALLS12-09-2019DISCHARGE (KAF)75682292
93SJMI1ST JOE-AT ST MARIES12-09-2019STAGE (FT)MMM
94SNAI1SNAKE-AT BLACKFOOT12-09-2019DISCHARGE (KAF)65476486
95SPDI1CLEARWATER-AT SPALDING12-09-2019DISCHARGE (KAF)1310225758
96SPOW1SPOKANE-AT SPOKANE12-09-2019DISCHARGE (KAF)787MM
97SRGM8CLARK FORK-AT ST REGIS12-09-2019DISCHARGE (KAF)77180496
98STRM8ST. REGIS-NEAR ST. REGIS12-09-2019DISCHARGE (KAF)205736
99SWAI1SNAKE-BELOW SWAN FALLS12-09-2019DISCHARGE (KAF)1784270866
100TCHW1WALLA WALLA-NEAR TOUCHET12-09-2019DISCHARGE (KAF)16519983
101TDAO3COLUMBIA-THE DALLES DAM12-09-2019INFLOW (KAF)291833918574
102TEAI1TETON-NEAR ST. ANTHONY12-09-2019DISCHARGE (KAF)879889
103TNAW1TEANAWAY-BELOW FORKS12-09-2019DISCHARGE (KAF)476870
104TONW1OKANOGAN-NEAR TONASKET12-09-2019DISCHARGE (KAF)21829873
105TRYO3GRANDE RONDE-TROY12-09-2019DISCHARGE (KAF)33453862
106UMAO3UMATILLA-NEAR UMATILLA12-09-2019DISCHARGE (KAF)11515077
107UMTW1YAKIMA-AT UMTANUM12-09-2019DISCHARGE (KAF)24734372
108UNDW1WHITE SALMON-NEAR UNDERWOOD12-09-2019DISCHARGE (KAF)25231281
109WANW1COLUMBIA-WANAPUM DAM12-09-2019INFLOW (KAF)201602113395
110WEII1SNAKE-AT WEISER12-09-2019DISCHARGE (KAF)2860422068
111WELW1COLUMBIA-WELLS DAM12-09-2019INFLOW (KAF)195202357683
112WGCM8MF FLATHEAD-NEAR WEST GLACIER12-09-2019DISCHARGE (KAF)7515349
113WHBI1SALMON-AT WHITEBIRD12-09-2019DISCHARGE (KAF)991111489
114WRMO3MALHEUR-WARM SPRINGS DAM12-09-2019INFLOW (KAF)335955
115WSRI1WEISER-NEAR WEISER12-09-2019DISCHARGE (KAF)19620895